CW4517 Weather Reports


time (UTC)temp
F
wind
direction
speed
knots
gust
knots
rain 1hr
in
rain 24hr
in
rain mn
in
humidity
%
barometer
mb
20260505090429 53 226 1.7 3.5 0.00 0.00 0.00 67 1001.6
20260505085919 53 245 1.7 3.5 0.00 0.00 0.00 69 1001.6
20260505085416 53 230 1.7 3.5 0.00 0.00 0.00 70 1001.6
20260505085135 53 230 1.7 3.5 0.00 0.00 0.00 70 1000.9
20260505084403 53 239 1.7 3.5 0.00 0.00 0.00 69 1000.9
20260505083858 54 223 0.9 3.5 0.00 0.00 0.00 68 1000.9
20260505083351 54 218 0.0 0.9 0.00 0.00 0.00 66 1000.9
20260505082839 54 218 0.9 1.7 0.00 0.00 0.00 66 1000.9
20260505082334 54 218 1.7 3.5 0.00 0.00 0.00 64 1000.9
20260505082326 54 218 1.7 3.5 0.00 0.00 0.00 65 1000.6
20260505081335 54 247 1.7 3.5 0.00 0.00 0.00 64 1000.6
20260505080833 54 215 1.7 4.3 0.00 0.00 0.00 63 1000.6
20260505080333 55 222 0.9 4.3 0.00 0.00 0.00 63 1000.1
20260505075834 55 259 0.9 1.7 0.00 0.00 0.00 63 1000.1
20260505075336 55 259 0.9 2.6 0.00 0.00 0.00 63 1000.1
20260505074835 55 273 0.9 2.6 0.00 0.00 0.00 63 999.7
20260505074335 55 277 0.0 2.6 0.00 0.00 0.00 63 999.7
20260505073830 55 278 0.0 3.5 0.00 0.00 0.00 62 999.7
20260505073322 55 286 0.0 3.5 0.00 0.00 0.00 61 999.6
20260505072816 55 284 0.0 2.6 0.00 0.00 0.00 59 999.6
20260505072311 55 284 0.0 2.6 0.00 0.00 0.00 59 999.6
20260505071801 56 281 0.0 2.6 0.00 0.00 0.00 59 999.3
20260505071744 56 284 0.0 2.6 0.00 0.00 0.00 59 999.3
20260505070752 56 286 0.0 2.6 0.00 0.00 0.00 58 999.3
20260505070247 56 296 0.9 3.5 0.00 0.00 0.00 58 999.3
20260505065740 56 295 1.7 5.2 0.00 0.00 0.00 59 999.3
20260505065230 57 276 2.6 6.1 0.00 0.00 0.00 58 999.3
20260505064945 57 286 2.6 7.0 0.00 0.00 0.00 58 998.8
20260505064443 57 300 1.7 7.0 0.00 0.00 0.00 59 998.8
20260505063716 57 308 1.7 6.1 0.00 0.00 0.00 59 998.8
20260505063212 58 349 2.6 7.0 0.00 0.00 0.00 60 998.6
20260505062932 58 290 2.6 7.0 0.00 0.00 0.00 59 998.6
20260505062159 58 259 2.6 6.1 0.00 0.00 0.00 61 998.6
20260505061646 58 198 2.6 7.0 0.00 0.00 0.00 61 998.6
20260505061145 58 257 2.6 12.2 0.00 0.00 0.00 61 998.6
20260505060640 58 270 2.6 12.2 0.00 0.00 0.00 62 998.6
20260505060350 59 202 3.5 7.8 0.00 0.00 0.00 64 998.6
20260505055627 59 333 3.5 7.8 0.00 0.00 0.00 65 998.6
20260505055120 59 298 2.6 7.8 0.00 0.00 0.00 66 998.6
20260505054620 59 254 3.5 10.4 0.00 0.00 0.00 68 998.6
20260505054109 59 281 3.5 10.4 0.00 0.00 0.00 69 998.6
20260505053603 59 286 3.5 13.0 0.00 0.00 0.00 72 998.6
20260505053057 59 225 3.5 13.0 0.00 0.00 0.00 75 998.7
20260505052552 58 301 2.6 7.0 0.00 0.00 0.00 79 998.7
20260505052047 58 255 2.6 7.0 0.00 0.00 0.00 80 998.7
20260505051540 59 267 2.6 6.1 0.00 0.00 0.00 80 998.5
20260505051035 59 240 3.5 7.8 0.00 0.00 0.00 81 998.5
20260505050527 59 259 3.5 7.8 0.00 0.00 0.00 81 998.5
20260505041426 58 227 3.5 7.0 0.00 0.00 0.00 84 997.9
20260505040915 58 230 3.5 7.0 0.00 0.00 0.00 84 997.9
20260505040413 58 215 2.6 6.1 0.00 0.00 0.00 84 997.9
20260505035908 58 213 3.5 6.1 0.00 0.00 0.00 85 997.9
20260505035626 58 221 3.5 6.1 0.00 0.00 0.00 85 997.9
20260505034857 58 211 4.3 7.8 0.00 0.00 0.00 85 997.9
20260505034351 58 220 4.3 8.7 0.00 0.00 0.00 85 997.9
20260505033844 58 206 5.2 8.7 0.00 0.00 0.00 84 997.9
20260505033336 58 215 4.3 10.4 0.00 0.00 0.00 84 997.9
20260505032829 58 226 4.3 10.4 0.00 0.00 0.00 83 997.9
20260505032323 59 218 4.3 8.7 0.00 0.00 0.00 83 997.9
20260505032040 59 221 4.3 8.7 0.00 0.00 0.00 82 997.6
20260505031530 59 200 4.3 8.7 0.00 0.00 0.00 82 997.6
20260505031026 59 182 3.5 8.7 0.00 0.00 0.00 82 997.6
20260505030252 59 204 2.6 8.7 0.00 0.00 0.00 81 997.3
20260505025741 59 215 2.6 6.1 0.00 0.00 0.00 81 997.3
20260505025227 59 228 2.6 7.0 0.00 0.00 0.00 81 997.3
20260505024941 59 239 1.7 6.1 0.00 0.00 0.00 82 997.4
20260505024202 58 165 1.7 5.2 0.00 0.00 0.00 83 997.4
20260505023649 58 168 1.7 5.2 0.00 0.00 0.00 83 997.4
20260505023138 58 141 1.7 5.2 0.00 0.00 0.00 82 997.5
20260505022626 58 182 1.7 5.2 0.00 0.00 0.00 82 997.5
20260505022113 59 152 2.6 6.1 0.00 0.00 0.00 82 997.5
20260505021609 58 177 2.6 6.1 0.00 0.00 0.00 82 997.0
20260505021058 59 186 2.6 5.2 0.00 0.00 0.00 82 997.0
20260505020552 59 151 2.6 6.1 0.00 0.00 0.00 82 997.0
20260505020042 59 197 4.3 7.0 0.00 0.00 0.00 81 997.0
20260505015538 59 207 4.3 12.2 0.00 0.00 0.00 81 997.0
20260505015515 59 228 5.2 12.2 0.00 0.00 0.00 81 997.0
20260505014526 59 213 6.1 11.3 0.00 0.00 0.00 82 997.6
20260505014021 58 253 7.0 20.9 0.00 0.00 0.00 82 997.6
20260505013509 58 202 7.8 20.9 0.00 0.00 0.00 83 997.6
20260505013008 58 243 9.6 22.6 0.00 0.00 0.00 83 998.0
20260505012729 58 223 8.7 22.6 0.00 0.00 0.00 84 998.0
20260505011956 58 247 10.4 23.5 0.00 0.00 0.00 83 998.0
20260505011450 59 243 8.7 23.5 0.00 0.00 0.00 82 996.9
20260505010940 59 215 5.2 16.5 0.00 0.00 0.00 81 996.9
20260505010438 60 251 4.3 8.7 0.00 0.00 0.00 80 996.7
20260505010149 60 233 4.3 7.8 0.00 0.00 0.00 81 996.7
20260505005426 60 201 4.3 10.4 0.00 0.00 0.00 83 996.7
20260505005139 60 171 6.1 11.3 0.00 0.00 0.00 83 996.3
20260505004415 60 208 7.0 16.5 0.00 0.00 0.00 82 996.3
20260505003909 61 178 5.2 16.5 0.00 0.00 0.00 81 996.3
20260505003359 63 244 3.5 11.3 0.00 0.00 0.00 78 996.1
20260505002857 65 281 4.3 11.3 0.00 0.00 0.00 77 996.1
20260505002351 66 276 4.3 10.4 0.00 0.00 0.00 74 996.1
20260505001839 67 286 6.1 14.8 0.00 0.00 0.00 72 996.0
20260505001338 68 252 6.1 14.8 0.00 0.00 0.00 70 996.0
20260505000832 68 306 5.2 12.2 0.00 0.00 0.00 70 996.0
20260505000544 69 292 6.1 15.6 0.00 0.00 0.00 69 994.7
20260504235821 69 224 6.1 15.6 0.00 0.00 0.00 69 994.7
20260504235314 69 232 6.1 12.2 0.00 0.00 0.00 68 994.7
20260504234808 69 201 7.0 13.0 0.00 0.00 0.00 67 995.1
20260504234301 68 213 7.8 20.0 0.00 0.00 0.00 67 995.1
20260504233756 67 209 7.0 20.0 0.00 0.00 0.00 70 995.1
20260504233246 68 184 7.0 13.0 0.00 0.00 0.00 70 994.9
20260504233006 68 236 6.1 13.0 0.00 0.00 0.00 69 994.9
20260504232237 67 238 7.8 18.2 0.00 0.00 0.00 72 994.9
20260504231727 67 186 9.6 23.5 0.00 0.00 0.00 71 994.8
20260504231225 69 229 7.8 23.5 0.00 0.00 0.00 69 994.8
20260504230719 71 199 5.2 10.4 0.00 0.00 0.00 66 994.8
20260504230432 71 226 5.2 15.6 0.00 0.00 0.00 64 995.7
20260504225659 70 208 3.5 15.6 0.00 0.00 0.00 65 995.7
20260504225424 70 252 2.6 6.1 0.00 0.00 0.00 64 995.7
20260504224923 72 245 3.5 8.7 0.00 0.00 0.00 60 995.1
20260504224159 74 273 5.2 11.3 0.00 0.00 0.00 56 995.1
20260504223700 75 269 7.8 19.1 0.00 0.00 0.00 54 995.1
20260504223204 75 247 9.6 20.0 0.00 0.00 0.00 53 994.9
20260504222700 75 232 8.7 20.0 0.00 0.00 0.00 53 994.9
20260504222159 75 217 8.7 18.2 0.00 0.00 0.00 53 994.9
20260504221659 75 223 7.8 18.2 0.00 0.00 0.00 53 995.2
20260504221416 75 215 7.0 18.2 0.00 0.00 0.00 52 995.2
20260504220642 76 227 7.8 14.8 0.00 0.00 0.00 52 995.2
20260504220132 76 202 8.7 17.4 0.00 0.00 0.00 51 995.2
20260504215626 76 215 9.6 21.7 0.00 0.00 0.00 49 995.2
20260504215119 76 248 9.6 21.7 0.00 0.00 0.00 48 995.2
20260504214833 76 207 9.6 21.7 0.00 0.00 0.00 48 995.1
20260504214326 77 231 10.4 21.7 0.00 0.00 0.00 47 995.1
20260504213824 78 222 10.4 20.9 0.00 0.00 0.00 47 995.1
20260504213056 78 230 9.6 20.0 0.00 0.00 0.00 46 995.4
20260504212546 78 200 9.6 20.0 0.00 0.00 0.00 46 995.4
20260504212306 78 227 10.4 20.0 0.00 0.00 0.00 46 995.4
20260504211538 78 199 10.4 20.0 0.00 0.00 0.00 47 995.6
20260504211032 78 187 9.6 18.2 0.00 0.00 0.00 49 995.6
20260504210526 78 175 8.7 23.5 0.00 0.00 0.00 47 995.6
20260504210020 78 238 10.4 23.5 0.00 0.00 0.00 45 995.9
20260504205515 78 196 10.4 20.9 0.00 0.00 0.00 47 995.9
20260504205009 78 227 9.6 19.1 0.00 0.00 0.00 47 995.9
20260504204501 79 169 10.4 24.3 0.00 0.00 0.00 47 995.7
20260504203955 79 201 10.4 24.3 0.00 0.00 0.00 47 995.7
20260504203450 79 211 9.6 19.1 0.00 0.00 0.00 43 995.9
20260504202939 79 220 9.6 19.1 0.00 0.00 0.00 42 995.9
20260504202656 80 189 7.8 18.2 0.00 0.00 0.00 42 995.9
20260504201931 79 248 7.8 15.6 0.00 0.00 0.00 42 996.1
20260504201425 79 213 8.7 15.6 0.00 0.00 0.00 41 996.1
20260504201136 79 225 7.8 15.6 0.00 0.00 0.00 41 996.1
20260504200415 78 239 7.8 15.6 0.00 0.00 0.00 38 996.4
20260504195904 78 241 8.7 17.4 0.00 0.00 0.00 43 996.4
20260504195402 78 212 7.8 17.4 0.00 0.00 0.00 42 996.4
20260504195124 79 213 7.8 20.0 0.00 0.00 0.00 38 996.4
20260504194359 79 233 7.0 20.0 0.00 0.00 0.00 38 996.4
20260504194122 79 210 6.1 20.0 0.00 0.00 0.00 40 996.4
20260504193359 78 197 7.0 20.0 0.00 0.00 0.00 40 996.4
20260504193122 79 235 8.7 21.7 0.00 0.00 0.00 38 996.4
20260504192355 78 255 9.6 21.7 0.00 0.00 0.00 39 996.4
20260504191854 78 240 8.7 25.2 0.00 0.00 0.00 40 996.4
20260504191354 79 263 8.7 25.2 0.00 0.00 0.00 39 996.4
20260504190854 79 271 8.7 18.2 0.00 0.00 0.00 41 996.4
20260504190352 78 209 8.7 22.6 0.00 0.00 0.00 40 996.7
20260504190117 78 237 9.6 22.6 0.00 0.00 0.00 41 996.7
20260504185351 78 225 9.6 18.2 0.00 0.00 0.00 41 996.7
20260504185114 78 187 8.7 18.2 0.00 0.00 0.00 43 996.9
20260504184350 77 262 9.6 19.1 0.00 0.00 0.00 43 996.9
20260504183851 77 221 9.6 19.1 0.00 0.00 0.00 44 996.9
20260504183610 77 222 8.7 16.5 0.00 0.00 0.00 45 997.0
20260504182847 77 228 8.7 17.4 0.00 0.00 0.00 47 997.0
20260504182338 77 282 8.7 17.4 0.00 0.00 0.00 44 997.0
20260504182324 76 212 8.7 19.1 0.00 0.00 0.00 44 997.0
20260504181338 76 235 8.7 19.1 0.00 0.00 0.00 45 997.0
20260504180838 76 232 8.7 20.0 0.00 0.00 0.00 45 997.0
20260504180339 76 232 8.7 20.0 0.00 0.00 0.00 46 997.3
20260504180105 76 204 9.6 19.1 0.00 0.00 0.00 47 997.3
20260504175338 76 294 8.7 16.5 0.00 0.00 0.00 48 997.3
20260504174841 75 232 7.8 13.9 0.00 0.00 0.00 51 997.5
20260504174340 75 248 7.8 20.0 0.00 0.00 0.00 51 997.5
20260504174101 74 221 7.8 20.0 0.00 0.00 0.00 52 997.5
20260504173333 74 236 7.8 14.8 0.00 0.00 0.00 54 997.9
20260504172822 74 220 7.8 17.4 0.00 0.00 0.00 53 997.9
20260504172321 73 207 7.8 17.4 0.00 0.00 0.00 54 997.9
20260504171815 74 234 7.0 13.0 0.00 0.00 0.00 53 998.0
20260504171310 74 238 7.0 13.0 0.00 0.00 0.00 53 998.0
20260504170803 73 271 7.8 18.2 0.00 0.00 0.00 52 998.0
20260504170253 73 259 7.8 18.2 0.00 0.00 0.00 52 998.1
20260504160359 70 233 7.0 15.6 0.00 0.00 0.00 60 999.1
20260504151130 68 219 7.0 13.9 0.00 0.00 0.00 59 999.6
20260504150631 67 232 7.0 13.0 0.00 0.00 0.00 58 999.6
20260504150130 67 219 6.1 11.3 0.00 0.00 0.00 59 999.7
20260504141110 62 223 5.2 11.3 0.00 0.00 0.00 67 1000.2
20260504140831 62 225 4.3 11.3 0.00 0.00 0.00 67 1000.2
20260504140109 62 216 4.3 9.6 0.00 0.00 0.00 68 1000.4
20260504130752 56 211 3.5 7.0 0.00 0.00 0.00 76 1000.8
20260504110323 48 205 2.6 6.1 0.00 0.00 0.00 84 1001.1
20260504100321 47 186 2.6 6.1 0.00 0.00 0.00 84 1001.3